Location: *
(46.1006°N, 1.8394°E)
Time: 05:33:29
(UTC+00:00)

Cosmos 1437 Rocket - Pass Details

Date: 20 September 2019
Orbit: 506 x 563 km, 81.2° (Epoch: 18 October)

Event Time Altitude Azimuth Distance (km) Brightness Sun altitude
Rises 18:59:50 0° 2° (N) 2,639 6.5 -11.9°
Reaches altitude 10° 19:02:26 10° 20° (NNE) 1,740 5.3 -12.4°
Maximum altitude 19:05:18 20° 69° (ENE) 1,230 4.1 -12.9°
Enters shadow 19:05:53 19° 82° (E) 1,254 4.1 -13.0°
